Temp
8 8 8 8 9 9 9 9 9 9 9 8 8 7 7 7 7 7 7 7 6 6 6 6 7 7 8 8 8 8 7 8 8 8 8 8 8 8 7 7 7 7 7 7 7 7 7 7 7
7 8 8 8 8 9 9 9 9 9 9 8 7 7 7 7 7 7 7 7 7 6 6 7 7 7 8 8 8 8 8 8 8 8 8 8 8 8 7 7 7 7 7 7 7 7 7 7 7
7 7 8 8 8 9 9 9 9 9 8 8 8 7 7 7 7 7 7 7 7 7 7 7 7 7 8 8 8 8 8 8 8 8 8 8 7 7 7 7 7 7 7 7 7 7 7 7 7
7 7 7 8 8 8 9 9 9 9 8 8 8 7 7 7 7 7 7 7 7 7 7 7 7 7 7 8 8 8 8 8 8 8 8 7 7 7 7 7 7 7 7 7 7 7 7 7 7
7 7 7 7 8 8 9 8 8 8 9 8 8 8 7 7 7 7 7 7 7 6 7 7 7 7 7 7 7 8 8 8 8 8 8 7 7 7 7 7 7 7 6 7 7 7 7 7 7
6 7 7 7 8 8 8 8 8 8 8 8 8 7 7 7 7 7 7 7 7 6 6 6 7 7 7 7 7 7 8 8 8 8 8 7 7 7 7 7 7 7 7 7 7 7 7 7 7
6 6 6 7 8 7 8 8 8 8 8 7 8 7 7 7 7 7 7 7 6 6 6 6 7 7 7 7 7 7 7 8 8 8 7 7 7 7 7 7 7 7 7 7 7 7 7 7 7
6 6 6 7 7 8 8 8 8 8 8 7 8 7 7 7 7 7 7 7 6 6 6 6 6 6 7 7 7 7 7 7 8 8 8 7 7 7 7 7 7 7 7 7 7 7 7 7 7
6 5 6 6 7 7 8 8 8 8 8 7 7 7 7 7 7 8 7 7 7 7 6 6 6 6 7 7 7 6 6 7 7 8 7 7 7 7 7 7 7 7 7 7 7 7 7 7 7
4 5 6 6 6 7 7 7 7 7 8 7 7 7 7 7 7 7 8 8 8 7 7 6 6 6 6 6 6 7 7 7 7 7 7 7 7 7 7 7 7 7 7 7 7 7 7 7 7
5 5 5 4 6 6 6 7 7 7 7 7 7 7 7 7 7 8 8 8 7 7 7 6 6 6 6 6 6 6 7 7 7 7 7 7 7 7 7 7 7 7 7 7 7 7 7 7 7
4 5 5 5 5 5 5 6 7 7 7 7 7 7 7 7 7 8 7 7 7 7 7 6 6 6 6 6 6 6 6 7 7 7 7 7 7 7 7 7 7 7 7 7 7 7 7 7 7
4 4 4 4 4 4 5 5 6 6 7 7 7 7 7 7 7 7 7 7 7 7 7 7 6 6 6 6 6 6 6 7 7 7 7 7 7 8 7 7 7 7 7 7 7 7 7 7 7
4 3 3 4 3 3 4 5 5 6 6 7 7 7 7 7 7 7 7 7 7 7 7 7 7 5 6 5 6 6 6 7 7 7 7 8 8 7 7 7 7 7 7 7 7 7 7 7 7
3 4 3 3 4 4 4 4 5 5 5 6 6 7 7 7 7 7 7 8 7 7 6 7 7 6 5 5 5 6 6 6 7 7 7 7 7 7 7 7 7 7 7 7 7 7 7 6 6
3 3 3 3 3 4 3 5 6 5 5 6 6 6 7 7 7 7 7 8 8 7 7 7 7 7 6 6 6 6 6 6 7 7 7 7 7 7 7 7 7 7 7 7 7 7 7 6 6
2 3 3 4 3 4 4 6 7 5 5 5 5 5 6 7 7 7 8 8 8 7 7 7 7 7 6 6 6 6 6 6 6 7 7 7 7 7 7 7 6 6 7 6 6 6 6 6 6
1 1 2 4 5 4 4 7 6 6 5 5 5 5 6 7 7 7 7 8 8 7 7 7 7 7 6 6 5 6 6 6 6 7 7 7 7 7 7 7 7 6 6 6 6 6 6 6 6
2 2 2 4 4 3 4 6 6 6 5 5 5 5 5 6 6 7 7 7 8 8 8 8 8 7 7 7 6 6 6 5 6 7 6 7 7 7 7 6 6 6 6 6 6 6 5 5 5
1 1 1 2 3 3 3 4 5 5 5 5 5 5 5 5 6 6 6 7 7 8 8 8 8 8 8 7 7 6 6 6 6 6 7 7 7 7 7 6 6 6 6 5 5 5 5 5 5
-0 0 1 2 2 2 2 3 4 5 6 7 6 6 5 6 6 6 6 7 7 8 8 8 8 8 8 8 7 7 7 7 7 8 8 7 7 6 6 6 6 6 5 5 5 5 5 5 5
0 1 1 1 1 2 2 2 4 5 6 6 7 7 6 7 7 6 6 6 7 8 7 7 8 8 8 8 8 8 8 8 7 7 7 7 6 6 6 6 6 6 5 5 5 5 4 4 4
0 1 1 1 1 1 2 1 2 4 5 7 8 8 8 8 8 7 6 6 6 7 7 7 7 8 8 8 8 8 9 8 7 7 7 7 7 7 6 6 5 5 5 5 5 4 4 4 4
0 -0 0 0 1 0 1 1 2 3 6 8 9 9 8 8 8 8 7 7 7 7 7 7 7 7 8 8 8 8 8 8 8 8 7 7 6 6 6 6 5 5 5 4 4 4 4 4 3
-1 -1 -1 -0 -0 1 2 2 2 3 5 8 9 9 8 8 9 9 9 8 8 8 7 7 7 7 7 7 8 8 8 8 8 8 7 7 6 7 6 6 5 5 4 4 4 3 3 3 3
-1 -1 -0 -1 -1 0 1 2 2 3 5 7 9 9 8 8 8 8 9 9 8 7 7 7 7 7 7 7 7 7 7 7 7 7 7 7 7 6 6 5 5 5 4 4 3 3 3 2 3
-1 -1 1 1 0 -1 2 3 3 3 4 7 8 9 9 9 8 8 8 8 8 7 7 7 7 7 7 7 6 7 7 7 7 7 7 7 7 7 6 6 5 5 4 4 4 3 3 3 3
-1 -0 -1 -1 -3 -3 1 2 3 5 6 7 8 8 8 8 9 9 8 7 8 8 8 8 7 7 7 7 7 7 7 7 7 7 7 7 7 7 7 6 6 5 5 5 4 4 4 3 3
-1 -2 -1 -0 0 -1 -2 3 4 5 6 8 8 7 7 7 8 8 7 7 8 8 8 8 8 7 7 7 7 7 7 7 7 7 7 7 7 7 6 6 6 5 5 5 4 4 4 4 3
-1 -1 -1 -0 0 1 1 3 4 6 6 6 7 7 6 7 7 7 7 8 8 8 8 8 7 7 7 7 7 7 7 7 7 7 7 6 6 6 6 6 6 6 6 5 5 4 4 3 3
Height
3190 3192 3193 3194 3198 3194 3194 3195 3194 3194 3194 3192 3192 3192 3193 3193 3194 3197 3193 3194 3196 3198 3200 3201 3202 3202 3202 3202 3202 3201 3202 3202 3203 3203 3203 3203 3203 3204 3204 3204 3203 3203 3203 3203 3202 3202 3201 3201 3200
3189 3190 3192 3193 3194 3193 3193 3193 3193 3194 3193 3191 3192 3192 3193 3193 3193 3193 3193 3194 3196 3199 3200 3202 3203 3203 3203 3203 3203 3203 3203 3204 3204 3204 3204 3204 3204 3204 3205 3205 3204 3204 3204 3204 3204 3203 3202 3202 3201
3187 3189 3191 3191 3191 3191 3192 3191 3192 3193 3193 3191 3191 3192 3192 3193 3193 3193 3193 3195 3198 3199 3201 3203 3204 3204 3205 3205 3205 3205 3204 3205 3205 3205 3206 3206 3206 3206 3206 3205 3205 3205 3205 3205 3205 3204 3203 3202 3201
3186 3188 3190 3189 3189 3190 3190 3190 3192 3192 3192 3191 3191 3192 3192 3192 3192 3193 3194 3196 3198 3200 3201 3203 3204 3204 3206 3207 3207 3206 3207 3207 3206 3207 3207 3207 3207 3207 3206 3206 3206 3207 3206 3206 3205 3204 3204 3203 3203
3183 3184 3186 3186 3188 3189 3189 3190 3191 3192 3191 3191 3191 3191 3191 3191 3191 3192 3194 3195 3198 3200 3202 3203 3204 3205 3207 3208 3208 3208 3209 3209 3208 3209 3208 3208 3208 3208 3208 3208 3208 3208 3207 3207 3207 3206 3205 3205 3205
3181 3183 3184 3185 3187 3188 3189 3189 3190 3190 3189 3190 3189 3189 3190 3190 3191 3192 3194 3195 3197 3199 3201 3203 3205 3205 3207 3208 3209 3210 3210 3210 3210 3210 3209 3209 3209 3209 3209 3209 3209 3208 3208 3208 3207 3207 3207 3207 3207
3179 3180 3182 3183 3185 3186 3187 3188 3188 3189 3188 3188 3188 3188 3189 3189 3190 3191 3193 3195 3196 3198 3200 3203 3204 3205 3206 3207 3208 3210 3210 3210 3211 3211 3211 3210 3210 3210 3210 3210 3209 3209 3209 3209 3208 3208 3208 3208 3208
3177 3180 3181 3181 3182 3184 3186 3186 3186 3187 3186 3186 3187 3188 3188 3188 3189 3189 3192 3194 3195 3197 3199 3201 3203 3204 3206 3207 3208 3209 3210 3210 3211 3211 3211 3211 3210 3211 3210 3210 3210 3209 3209 3209 3209 3209 3209 3208 3208
3176 3177 3179 3180 3181 3183 3184 3185 3185 3186 3185 3185 3186 3187 3188 3188 3188 3188 3190 3191 3192 3194 3197 3200 3202 3203 3205 3206 3207 3208 3209 3210 3211 3211 3211 3211 3211 3211 3211 3210 3210 3209 3210 3210 3210 3209 3209 3208 3207
3172 3172 3176 3180 3181 3182 3183 3183 3184 3184 3184 3185 3185 3186 3186 3186 3186 3187 3188 3189 3190 3192 3195 3198 3200 3202 3203 3205 3206 3207 3208 3209 3210 3211 3211 3211 3211 3212 3212 3212 3211 3211 3211 3211 3210 3209 3209 3208 3207
3169 3170 3172 3177 3179 3179 3181 3181 3181 3182 3182 3183 3184 3184 3184 3184 3184 3184 3186 3186 3188 3190 3193 3195 3198 3200 3201 3203 3204 3205 3206 3207 3209 3209 3210 3211 3212 3212 3212 3212 3212 3211 3211 3211 3210 3210 3209 3207 3206
3166 3167 3168 3173 3175 3176 3179 3180 3180 3180 3180 3181 3183 3183 3183 3183 3182 3183 3184 3184 3186 3187 3190 3192 3195 3197 3198 3200 3202 3203 3205 3206 3207 3208 3208 3210 3211 3212 3212 3212 3211 3211 3210 3210 3209 3208 3208 3207 3205
3161 3164 3166 3170 3172 3174 3177 3177 3178 3179 3179 3180 3181 3181 3181 3181 3181 3182 3183 3182 3183 3185 3187 3189 3193 3195 3196 3198 3200 3200 3201 3203 3205 3206 3207 3208 3209 3210 3210 3211 3210 3210 3210 3209 3208 3207 3206 3204 3203
3159 3161 3163 3165 3169 3171 3173 3173 3175 3176 3176 3177 3178 3178 3179 3180 3180 3180 3181 3182 3181 3182 3184 3185 3190 3192 3193 3195 3196 3197 3199 3201 3202 3204 3205 3206 3206 3208 3209 3209 3209 3209 3209 3208 3206 3206 3204 3202 3200
3156 3158 3160 3161 3165 3167 3170 3169 3169 3172 3173 3174 3175 3175 3176 3177 3177 3178 3179 3180 3179 3179 3180 3183 3185 3190 3191 3193 3194 3197 3197 3198 3200 3200 3203 3204 3205 3205 3205 3206 3206 3206 3206 3205 3204 3203 3201 3200 3198
3152 3154 3154 3157 3161 3164 3167 3160 3167 3170 3168 3169 3170 3171 3173 3173 3174 3175 3176 3178 3177 3177 3178 3179 3181 3184 3188 3190 3192 3193 3196 3198 3199 3199 3199 3200 3202 3203 3204 3204 3204 3204 3204 3203 3202 3201 3199 3197 3195
3147 3146 3146 3154 3156 3159 3159 3156 3161 3165 3164 3164 3165 3167 3168 3170 3170 3171 3173 3174 3176 3175 3176 3177 3178 3180 3183 3185 3188 3190 3192 3194 3196 3197 3198 3200 3201 3201 3201 3202 3202 3202 3201 3201 3200 3198 3196 3194 3192
3139 3142 3143 3147 3153 3154 3153 3149 3154 3159 3159 3160 3160 3160 3162 3164 3167 3168 3169 3169 3172 3172 3172 3174 3175 3177 3179 3182 3184 3185 3187 3189 3191 3193 3194 3195 3196 3197 3197 3197 3197 3197 3197 3197 3197 3195 3193 3191 3188
3139 3140 3142 3143 3149 3149 3148 3145 3149 3153 3153 3153 3154 3155 3156 3158 3162 3163 3164 3165 3165 3167 3169 3170 3171 3173 3175 3177 3179 3182 3184 3185 3186 3189 3190 3191 3192 3193 3194 3194 3195 3195 3194 3192 3191 3190 3188 3186 3183
3136 3137 3138 3141 3144 3145 3144 3139 3142 3144 3146 3147 3149 3150 3151 3152 3154 3156 3158 3159 3160 3163 3165 3166 3168 3169 3170 3172 3175 3177 3179 3181 3182 3183 3184 3186 3187 3189 3190 3189 3189 3189 3189 3188 3187 3185 3183 3182 3179
3131 3133 3138 3141 3141 3140 3141 3133 3132 3134 3138 3140 3141 3142 3144 3145 3146 3149 3150 3153 3156 3157 3159 3163 3165 3166 3166 3168 3170 3172 3173 3175 3175 3178 3180 3182 3184 3184 3185 3184 3184 3184 3184 3183 3182 3181 3179 3177 3175
3125 3130 3136 3139 3139 3136 3138 3125 3122 3126 3127 3130 3133 3135 3136 3139 3141 3142 3143 3145 3147 3151 3155 3156 3159 3160 3162 3162 3163 3165 3168 3169 3172 3174 3176 3177 3178 3179 3180 3179 3179 3179 3179 3178 3177 3175 3174 3172 3169
3120 3127 3131 3135 3135 3134 3132 3130 3110 3118 3118 3120 3124 3128 3129 3133 3134 3134 3135 3136 3139 3143 3148 3151 3152 3154 3156 3157 3158 3160 3162 3165 3167 3168 3169 3171 3173 3173 3175 3174 3174 3173 3173 3172 3171 3170 3167 3166 3164
3120 3124 3126 3129 3132 3126 3121 3125 3100 3107 3110 3114 3118 3120 3122 3125 3125 3126 3128 3129 3130 3133 3138 3142 3144 3147 3150 3151 3152 3153 3156 3159 3160 3162 3163 3164 3166 3166 3167 3168 3168 3167 3166 3166 3165 3163 3161 3159 3158
3112 3119 3121 3124 3123 3108 3113 3117 3091 3101 3104 3108 3110 3114 3115 3115 3116 3118 3119 3121 3123 3125 3129 3133 3136 3139 3143 3145 3147 3148 3149 3151 3153 3155 3156 3156 3158 3159 3160 3161 3160 3160 3159 3158 3157 3156 3154 3153 3151
3101 3110 3109 3111 3109 3102 3106 3097 3086 3093 3098 3101 3104 3107 3108 3106 3108 3110 3112 3113 3115 3117 3120 3123 3126 3131 3135 3138 3140 3142 3142 3143 3145 3146 3148 3149 3151 3152 3153 3153 3152 3152 3151 3150 3149 3148 3147 3145 3144
3097 3098 3101 3104 3102 3100 3095 3088 3088 3091 3093 3096 3096 3098 3099 3102 3102 3103 3105 3106 3108 3109 3112 3114 3116 3122 3126 3129 3132 3134 3136 3137 3139 3141 3140 3141 3142 3143 3143 3143 3143 3142 3141 3141 3139 3138 3138 3137 3135
3086 3094 3100 3101 3100 3099 3084 3080 3077 3083 3086 3087 3087 3091 3093 3094 3096 3097 3097 3099 3101 3103 3104 3106 3107 3112 3117 3121 3123 3126 3128 3130 3131 3131 3131 3133 3134 3135 3135 3135 3135 3134 3133 3133 3131 3130 3130 3128 3127
3080 3083 3086 3091 3090 3084 3084 3072 3074 3078 3081 3083 3083 3083 3085 3087 3088 3090 3092 3094 3095 3097 3097 3099 3101 3103 3108 3112 3116 3117 3119 3121 3122 3122 3123 3124 3125 3126 3126 3127 3127 3127 3126 3125 3123 3121 3121 3119 3117
3073 3074 3079 3082 3077 3076 3075 3065 3071 3074 3075 3076 3077 3078 3080 3081 3083 3085 3086 3088 3088 3089 3092 3093 3095 3099 3102 3105 3107 3108 3109 3110 3110 3110 3111 3112 3113 3115 3116 3116 3116 3116 3115 3114 3114 3112 3110 3110 3108
Wind_Speed
12 10 7 5 3 3 2 5 7 4 3 6 7 7 6 8 11 2 8 16 14 13 14 10 7 6 6 7 9 8 8 8 8 8 10 11 10 10 10 11 11 11 11 11 10 10 10 11 12
11 12 10 6 4 4 1 9 7 3 2 5 9 10 9 8 5 2 10 17 16 13 12 10 8 6 6 7 8 8 8 9 9 9 10 9 10 10 11 11 12 10 11 9 8 9 10 11 12
12 12 11 6 9 7 4 8 4 3 3 5 8 9 8 8 6 3 13 15 17 15 13 10 7 7 5 5 6 7 8 9 9 10 10 10 10 10 11 10 11 11 9 8 8 9 10 11 11
11 12 11 11 8 3 6 8 5 4 5 5 7 7 8 9 7 4 13 18 17 14 12 11 8 9 7 5 4 5 6 7 9 10 9 9 9 9 11 10 10 9 8 7 8 9 10 10 11
15 12 13 13 11 4 6 8 7 7 9 6 8 7 7 8 6 5 11 20 18 14 13 11 11 10 8 6 3 2 3 5 7 8 8 9 9 9 10 9 8 8 7 6 7 8 9 9 8
12 14 11 15 14 9 7 6 7 9 8 5 5 6 7 8 7 7 11 19 18 15 13 12 11 10 8 7 3 1 2 3 5 6 7 7 8 9 8 8 7 7 6 6 7 7 7 7 7
12 14 11 15 11 12 11 7 9 8 8 7 6 5 6 9 9 9 12 16 18 17 16 14 12 10 8 7 5 3 2 2 5 5 5 6 7 7 6 6 6 5 5 5 5 5 6 6 7
13 16 13 11 7 12 14 12 10 10 9 9 8 1 5 7 8 10 12 17 20 20 19 17 15 12 10 9 6 3 4 3 4 5 5 4 5 5 4 4 4 4 4 3 3 4 5 5 7
13 18 20 10 8 7 16 13 12 11 12 11 9 6 5 6 5 8 12 17 22 23 22 20 17 15 12 10 7 5 5 5 4 5 5 4 4 3 3 4 3 3 2 1 2 2 4 6 8
21 19 20 18 11 9 11 10 9 12 13 12 7 8 7 8 8 6 10 12 20 21 22 21 19 16 13 11 9 8 6 5 6 6 7 5 4 3 2 1 1 1 1 1 1 3 5 7 9
23 25 20 25 14 6 7 10 10 14 15 12 11 10 8 8 8 7 9 12 13 19 23 22 20 18 15 13 11 10 8 7 9 10 9 6 5 4 4 3 2 2 3 3 3 5 7 9 11
22 21 23 29 29 10 6 9 11 12 14 12 12 10 10 8 7 8 9 13 15 18 20 23 23 20 19 16 14 12 10 9 11 13 11 9 7 7 6 5 4 5 5 5 5 7 9 10 13
20 18 20 21 21 18 12 11 9 11 13 14 13 12 10 9 8 8 10 13 15 18 21 23 25 23 21 19 17 16 13 11 12 14 14 12 10 9 8 7 6 7 7 8 8 9 11 12 14
20 16 16 22 25 22 19 20 19 19 15 13 13 13 12 12 11 10 10 12 13 15 20 24 24 26 25 22 20 18 15 14 14 15 16 15 13 11 10 9 8 9 9 10 11 11 13 14 15
24 19 19 25 26 26 24 25 21 18 18 20 19 17 14 13 13 13 11 11 12 12 17 21 23 25 26 22 21 19 18 16 17 17 17 16 14 14 12 11 11 11 12 12 12 13 14 15 17
22 25 26 27 27 28 22 32 23 22 23 22 22 22 18 15 15 15 14 12 12 14 14 20 23 23 25 23 20 19 18 17 18 19 20 18 17 15 13 13 13 14 14 14 15 16 17 18 20
23 26 31 28 28 28 26 31 23 23 26 29 27 26 23 20 19 17 16 15 14 14 14 17 21 22 24 24 22 20 19 17 19 20 20 18 17 16 15 14 15 16 15 16 17 18 19 20 21
23 31 20 29 29 34 35 37 30 22 23 28 34 28 27 27 21 19 20 18 19 16 17 17 20 23 23 24 24 23 22 21 20 21 21 21 19 18 16 17 17 18 17 18 19 20 22 23 25
20 29 26 31 25 21 30 33 30 25 26 29 25 33 32 31 23 24 22 23 22 21 19 19 20 20 23 25 24 25 23 21 21 21 20 21 20 20 19 19 19 19 19 20 21 22 23 24 26
31 21 23 19 19 24 27 35 31 28 30 29 28 28 35 34 31 32 30 26 26 23 21 22 20 21 22 23 22 24 23 22 23 23 23 24 23 21 20 21 21 22 22 22 23 24 26 26 29
35 31 25 19 15 21 30 37 40 37 34 33 35 35 35 37 32 31 32 34 28 29 25 22 22 24 23 23 23 24 26 25 25 23 23 22 21 22 22 23 24 25 24 25 26 26 27 28 30
35 35 32 18 14 22 21 14 31 35 39 37 33 34 33 32 32 32 33 34 37 32 28 24 24 25 26 26 25 24 24 24 21 23 23 23 23 23 24 26 26 26 27 26 27 28 28 29 31
34 27 30 33 27 26 26 16 33 36 41 36 33 33 34 31 32 34 37 36 34 38 33 28 26 26 28 29 29 27 26 24 24 25 25 26 26 26 26 27 29 29 28 28 28 30 31 31 32
27 25 22 29 34 22 34 26 31 39 42 35 30 26 28 28 29 33 34 34 29 32 38 34 32 28 28 30 31 31 29 28 27 27 26 27 28 28 28 29 29 30 30 28 30 32 33 33 33
32 28 9 10 11 19 26 25 54 17 28 25 26 19 23 31 33 31 33 36 32 32 35 37 38 33 30 31 31 31 31 31 31 30 30 30 30 30 29 29 30 31 31 32 32 33 34 34 34
41 37 9 7 6 11 11 19 27 24 30 30 29 23 26 26 28 31 33 34 34 34 34 33 38 40 34 30 31 32 32 32 32 32 32 32 31 30 30 31 32 32 33 33 35 34 35 36 35
33 41 41 7 3 2 18 33 39 27 24 27 27 24 27 25 25 27 28 31 31 31 30 32 34 39 39 35 33 32 31 31 31 31 34 34 33 33 32 32 33 33 33 34 36 36 36 37 37
36 39 33 24 5 6 10 23 28 16 17 20 34 34 31 30 30 30 28 27 25 27 28 27 31 38 40 41 38 36 35 34 34 35 36 35 35 35 34 34 34 34 34 34 36 37 36 38 38
41 37 32 29 20 5 3 15 24 22 19 21 23 29 30 32 30 26 25 25 27 26 25 24 27 36 42 43 42 42 42 42 43 44 44 43 40 37 36 34 34 35 36 36 37 37 37 37 39
46 41 48 28 34 29 13 28 11 14 19 23 26 25 24 21 23 23 24 23 23 26 25 21 20 26 33 38 41 43 43 41 42 44 45 46 45 40 36 35 36 37 38 38 38 38 39 39 41
Wind_Direction
234 229 237 251 240 233 185 202 217 237 223 228 195 180 174 151 172 219 183 166 164 146 162 157 145 127 137 155 169 170 152 145 144 136 134 123 117 106 103 101 96 91 89 84 82 81 81 79 79
238 235 236 244 238 228 315 204 204 228 237 261 194 194 187 174 183 224 166 167 169 158 150 154 152 134 129 151 163 156 153 150 148 143 133 121 113 108 104 101 98 94 85 85 85 83 77 75 74
236 237 236 234 237 228 172 193 228 256 275 255 219 191 197 198 206 170 166 170 176 168 158 163 168 161 144 151 158 161 165 161 153 140 135 127 117 112 105 103 97 89 87 86 85 80 77 73 68
250 232 229 230 224 241 243 205 202 251 280 236 207 192 202 188 191 144 173 169 171 177 169 170 169 166 166 158 153 176 174 161 151 141 142 125 122 118 110 103 94 90 87 84 83 82 78 73 69
252 228 222 222 188 187 166 165 192 245 279 237 214 218 191 200 185 157 164 172 179 189 184 183 172 173 174 170 148 129 164 156 154 152 142 134 129 116 109 103 96 94 90 85 83 79 74 67 61
226 215 211 213 191 205 207 211 245 267 262 245 219 215 206 207 192 185 168 175 183 193 196 194 181 176 180 178 159 135 96 163 166 163 154 138 130 121 114 108 104 97 92 92 88 81 72 63 46
225 214 209 207 187 204 205 214 252 261 250 241 252 233 231 224 212 206 189 184 190 201 202 202 193 188 191 184 174 179 187 185 192 175 157 146 132 119 112 110 104 98 95 91 84 71 57 42 28
213 212 202 189 200 210 211 211 235 253 248 261 259 241 218 240 225 221 212 195 197 205 206 207 203 196 199 203 203 208 212 216 202 186 172 169 138 131 125 120 114 106 104 104 90 57 36 17 9
207 213 210 193 167 187 193 207 222 235 244 253 263 257 250 251 246 235 223 207 202 206 206 210 210 208 211 212 216 216 227 236 226 193 195 197 163 158 158 155 150 136 145 136 65 25 1 353 351
212 206 210 195 166 167 191 198 233 234 243 244 248 257 255 252 248 240 234 209 205 210 210 211 215 217 219 216 214 212 221 231 231 214 214 216 207 213 225 221 191 193 223 270 332 342 334 333 337
213 220 212 194 173 148 219 233 238 227 239 244 247 261 262 251 247 251 224 216 201 208 215 213 216 218 220 220 218 215 223 231 218 211 220 222 233 247 253 264 272 267 263 269 301 317 316 326 328
216 225 226 209 210 217 238 234 228 232 233 233 233 247 259 254 254 254 241 225 214 210 216 220 218 219 219 217 216 215 227 229 214 208 213 216 229 249 258 266 269 267 264 275 288 300 310 316 320
230 234 231 221 196 210 231 233 247 255 249 245 243 248 255 262 261 257 252 234 223 220 221 223 220 222 221 219 221 217 220 226 215 210 212 219 224 235 249 259 267 270 269 276 287 296 302 308 317
236 229 230 210 214 220 249 249 245 250 253 254 249 254 256 262 266 260 256 254 244 231 230 227 222 217 224 223 224 222 223 224 219 220 220 218 220 230 241 259 270 274 275 280 285 293 299 307 312
236 223 222 223 210 213 223 238 237 248 254 253 258 253 255 256 262 264 258 254 242 238 227 231 229 221 220 224 231 236 230 229 226 223 229 235 230 229 234 246 253 261 264 270 281 288 294 300 307
229 231 225 220 225 229 227 243 232 237 250 256 256 258 252 255 259 260 261 255 253 246 232 228 228 224 222 227 232 238 245 247 240 234 230 232 236 241 244 249 260 266 272 280 285 291 297 304 308
223 228 226 233 222 218 231 257 247 232 242 249 258 251 249 247 251 257 259 256 251 247 242 233 231 230 224 227 233 233 245 249 250 244 242 245 250 250 256 264 271 278 283 285 289 293 298 300 301
218 223 227 231 227 234 238 253 252 249 249 245 249 252 246 243 243 253 257 253 252 243 242 234 233 235 231 232 235 231 231 238 245 245 245 244 246 252 254 259 263 272 280 287 292 294 296 297 297
237 240 242 242 238 249 244 253 253 252 251 247 253 244 244 246 245 243 245 249 247 250 248 247 239 241 241 239 236 241 240 241 247 247 248 252 252 254 259 266 276 279 282 283 285 288 291 292 292
231 231 236 242 239 241 247 252 255 250 246 242 244 248 250 251 252 252 248 244 248 247 246 248 250 246 245 244 242 240 245 247 248 243 239 240 248 258 263 268 271 273 276 280 285 289 292 293 293
229 228 229 232 237 249 250 258 254 251 247 247 247 247 247 250 251 255 252 249 243 246 245 248 252 251 248 249 247 244 244 243 243 247 248 253 259 265 268 268 271 276 281 286 288 292 294 295 295
233 231 229 228 252 248 243 269 259 258 256 254 248 248 247 246 252 258 256 252 250 243 246 245 244 248 249 247 248 248 249 248 250 252 254 255 257 260 265 271 276 280 283 285 289 291 292 291 293
233 237 235 231 245 257 244 255 267 262 254 248 250 253 249 250 256 256 253 254 255 246 244 245 246 245 248 248 248 251 252 252 250 252 255 260 262 265 268 271 275 278 284 287 289 290 290 292 292
240 232 232 233 236 253 244 239 265 256 256 256 255 257 251 250 255 251 254 252 255 245 243 243 243 243 247 248 249 249 252 254 253 254 257 261 266 266 267 271 276 279 282 285 286 287 288 291 292
222 214 211 219 218 240 242 239 248 250 250 259 252 253 255 253 249 246 250 250 250 246 245 244 241 243 244 247 251 253 253 255 258 257 258 258 261 266 271 274 276 279 282 283 284 284 286 288 289
217 202 189 201 198 247 200 236 250 262 260 258 260 249 253 255 243 243 247 251 252 251 248 253 244 239 241 245 248 252 254 254 256 258 261 264 266 270 271 272 274 276 278 280 280 281 283 285 288
209 208 213 268 257 248 223 247 257 253 254 260 260 250 247 244 252 252 249 243 246 249 250 255 245 232 237 243 248 249 253 257 261 263 262 262 264 265 266 266 268 271 272 275 278 280 283 284 287
221 218 208 223 192 231 236 246 241 254 269 260 250 250 245 245 254 259 252 243 242 252 257 258 241 229 236 241 246 252 254 256 260 261 262 265 267 267 267 266 266 268 272 276 279 282 284 284 284
213 216 211 220 234 222 257 251 260 265 266 257 247 234 239 244 245 242 247 250 243 251 257 259 248 233 237 244 249 254 258 262 264 264 264 266 266 268 268 270 271 273 276 278 277 277 279 280 280
217 215 212 211 219 226 244 248 266 285 245 224 236 222 228 232 232 240 242 249 248 249 252 257 253 246 247 251 255 259 261 264 265 265 265 263 259 262 267 269 271 271 271 272 272 273 273 273 274